CAPE
0 0 0 0 0 0 0 0 0 0 0 0 0 0 0 0 0 0 0 10 51 25 102 145 210 142 15 0 0 0 0 0 0 1 30 11 0 0 0 0 0 3 10 3 1 1 3 0 0
0 0 0 0 0 0 0 0 0 0 0 0 0 0 0 0 0 0 12 62 57 38 82 94 112 63 3 0 0 0 0 0 0 0 9 0 0 0 0 0 0 3 17 10 2 1 0 2 0
0 0 0 0 0 0 0 0 0 0 0 0 0 0 0 0 0 0 0 81 104 73 46 36 29 27 12 0 0 0 0 0 0 0 0 0 5 6 0 0 3 5 0 0 0 0 0 2 0
0 0 0 0 0 0 0 0 0 0 0 0 0 0 0 0 0 0 35 163 47 50 45 47 34 31 27 0 0 0 0 0 0 2 0 2 19 16 6 0 0 0 0 0 0 0 32 20 0
0 0 0 0 0 0 0 0 0 0 0 0 0 0 0 0 0 0 80 165 53 52 67 56 69 40 35 8 0 0 0 0 0 0 0 0 4 11 9 0 0 0 0 0 0 0 0 12 3
0 0 0 0 0 0 0 0 0 0 0 0 0 0 0 0 0 0 2 115 128 78 67 68 55 24 11 3 0 0 0 0 0 0 8 9 0 2 5 0 0 0 0 0 0 0 0 0 0
0 0 0 0 0 0 0 0 0 0 0 0 0 0 0 0 0 0 0 67 103 84 60 55 21 4 0 0 0 0 0 0 0 0 0 0 0 0 0 1 0 0 0 0 0 0 0 0 0
0 0 0 0 0 0 0 0 0 0 0 0 0 0 0 0 0 0 0 0 71 65 68 33 7 5 0 0 0 0 0 0 0 0 0 0 0 0 0 0 0 5 0 0 0 0 0 0 0
0 0 0 0 0 0 0 0 0 0 0 0 0 0 0 0 0 0 0 0 11 69 56 23 2 0 0 0 0 0 0 0 0 0 0 0 0 0 0 0 0 0 0 1 0 0 0 0 0
0 0 0 0 0 0 0 0 0 0 0 0 0 0 0 0 0 0 0 0 0 1 56 28 1 0 0 1 0 0 0 0 0 0 0 0 0 0 0 0 0 0 0 0 0 0 0 0 0
0 0 0 0 0 0 0 0 0 0 0 0 0 0 0 0 0 0 0 0 0 0 3 3 0 0 0 0 1 0 0 0 0 0 0 0 0 0 0 0 0 0 0 0 0 0 0 0 0
0 0 0 0 0 0 0 0 0 0 0 0 0 0 0 0 0 0 0 0 0 0 1 8 0 0 13 6 1 0 0 0 0 1 1 1 0 0 0 0 0 0 0 0 0 0 0 0 0
0 0 0 0 0 0 0 0 0 0 0 0 0 0 0 0 0 0 0 0 0 0 0 0 0 1 8 13 8 0 0 0 0 0 0 1 4 2 1 1 0 0 0 0 0 0 0 0 0
0 0 0 0 0 0 0 0 0 0 0 0 0 0 0 0 0 0 0 0 0 0 0 0 0 0 0 11 11 8 0 0 0 0 0 0 4 4 6 4 8 3 1 2 1 1 1 0 0
0 0 0 0 0 0 0 0 0 0 0 0 0 0 0 0 0 0 0 0 0 0 0 0 0 0 0 0 0 0 0 0 0 0 1 0 2 3 10 6 17 33 13 8 9 9 6 0 4
0 0 0 0 0 0 0 0 0 0 0 0 0 0 0 0 0 0 0 0 0 0 0 0 0 0 0 0 0 0 0 2 15 13 36 46 18 37 27 36 33 68 105 119 96 95 76 63 50
0 0 0 0 0 0 0 0 0 0 0 0 0 0 0 0 0 0 0 0 0 0 0 0 0 0 0 0 0 0 0 0 0 0 12 55 46 53 73 90 110 117 128 107 87 103 112 101 95
0 0 0 0 0 0 0 0 0 0 0 0 0 0 0 0 0 0 0 0 0 0 0 0 0 0 0 0 0 0 0 0 0 0 0 0 0 1 11 17 11 41 110 88 59 52 60 74 72
0 0 0 0 0 0 0 0 0 0 0 0 0 0 0 0 0 0 0 0 0 0 0 0 0 0 0 0 0 0 0 0 0 0 0 0 0 0 0 0 0 2 0 0 0 1 24 20 22
0 0 0 0 0 0 0 0 0 0 0 0 0 0 0 0 0 0 0 0 0 0 0 0 0 0 0 0 0 0 0 0 0 0 0 0 0 0 0 0 0 0 0 0 0 0 0 4 3
0 0 0 0 0 0 0 0 0 0 0 0 0 0 0 0 0 0 0 0 0 0 0 0 0 0 0 0 0 0 0 0 0 0 0 0 0 0 0 0 0 0 0 0 0 0 0 0 0
0 0 0 0 0 0 0 0 0 0 0 0 0 0 0 0 0 0 0 0 0 0 0 0 0 0 0 0 0 0 0 0 0 0 0 0 0 0 0 0 0 0 0 0 0 0 0 0 0
0 0 0 0 0 0 0 0 0 0 0 0 0 0 0 0 0 0 0 0 0 0 0 0 0 0 0 0 0 0 0 0 0 0 0 0 0 0 0 0 0 0 0 0 0 0 0 0 0
0 0 0 0 0 0 0 0 0 0 0 0 0 0 0 0 0 0 0 0 0 0 0 0 0 0 0 0 0 0 0 0 0 0 0 0 0 0 0 0 0 0 0 0 0 0 0 0 0
0 0 0 0 0 0 0 0 0 0 0 0 0 0 0 0 0 0 0 0 0 0 0 0 0 0 0 0 0 0 0 0 0 0 0 0 0 0 0 0 0 0 0 0 0 0 0 0 0
0 0 0 0 0 0 0 0 0 0 0 0 0 0 0 0 0 0 0 0 0 0 0 0 0 0 0 0 0 0 0 0 0 0 0 0 0 0 0 0 0 0 0 0 0 0 0 0 0
0 0 0 0 0 0 0 0 0 0 0 0 0 0 0 0 0 0 0 0 0 0 0 0 0 0 0 0 0 0 0 0 0 0 0 0 0 0 0 0 0 0 0 0 0 0 0 0 0
0 0 0 0 0 0 0 0 0 0 0 0 0 0 0 0 0 0 0 0 0 0 0 0 0 0 0 0 0 0 0 0 0 0 0 0 0 0 0 0 0 0 0 0 0 0 0 0 0
0 1 0 0 0 0 0 0 0 0 0 0 0 0 0 0 0 0 0 0 0 0 0 0 0 0 0 0 0 0 0 0 0 0 0 0 0 0 0 0 0 0 0 0 0 0 0 0 0
0 0 0 0 0 0 0 0 0 0 0 0 0 0 0 0 0 0 0 0 0 0 0 0 0 0 0 0 0 0 0 0 0 0 0 0 0 0 0 0 0 0 0 0 0 0 0 0 0
CIN
0 0 0 0 0 0 0 0 0 0 0 0 0 0 0 0 0 0 0 -117 -133 -102 -72 -34 -8 -6 -68 0 0 0 0 0 0 0 -16 0 0 0 0 0 0 0 0 0 0 0 0 0 0
0 0 0 0 0 0 0 0 0 0 0 0 0 0 0 0 0 0 -105 -187 -162 -139 -99 -74 -38 -42 -13 0 0 0 0 0 0 0 0 0 0 0 0 0 0 0 0 0 0 0 0 0 0
0 0 0 0 0 0 0 0 0 0 0 0 0 0 0 0 0 0 0 -174 -142 -146 -163 -138 -113 -99 -62 0 0 0 0 0 0 0 0 0 -1 -4 0 0 -1 0 0 0 0 0 0 0 0
0 0 0 0 0 0 0 0 0 0 0 0 0 0 0 0 0 0 -122 -125 -193 -192 -179 -152 -120 -125 -141 0 0 0 0 0 0 0 0 0 -2 -4 -8 0 0 0 0 0 0 0 0 0 0
0 0 0 0 0 0 0 0 0 0 0 0 0 0 0 0 0 0 -163 -135 -176 -202 -182 -170 -135 -153 -149 -211 0 0 0 0 0 0 0 0 -1 -1 -4 0 0 0 0 0 0 0 0 0 -1
0 0 0 0 0 0 0 0 0 0 0 0 0 0 0 0 0 0 -75 -135 -137 -181 -201 -188 -182 -208 -226 -113 0 0 0 0 0 0 -2 -1 0 -1 -4 0 0 0 0 0 0 0 0 0 0
0 0 0 0 0 0 0 0 0 0 0 0 0 0 0 0 0 0 0 -188 -169 -186 -202 -208 -246 -164 -12 0 0 0 0 0 0 0 0 0 0 0 0 -1 0 0 0 0 0 0 0 0 0
0 0 0 0 0 0 0 0 0 0 0 0 0 0 0 0 0 0 0 0 -176 -188 -188 -234 -296 -291 0 0 0 0 0 0 0 0 0 0 0 0 0 0 0 -2 0 0 0 0 0 0 0
0 0 0 0 0 0 0 0 0 0 0 0 0 0 0 0 0 0 0 0 -247 -183 -201 -244 -298 0 0 0 0 0 0 0 0 0 0 0 0 0 0 0 0 0 0 -2 0 0 0 0 0
0 0 0 0 0 0 0 0 0 0 0 0 0 0 0 0 0 0 0 0 0 -45 -191 -251 -91 0 0 -169 0 0 0 -15 0 0 0 0 0 0 0 0 0 0 0 0 0 0 0 0 0
0 0 0 0 0 0 0 0 0 0 0 0 0 0 0 0 0 0 0 0 0 0 -189 -245 0 0 0 -17 -188 0 0 0 0 -1 -1 0 0 0 0 0 0 0 0 0 0 0 0 0 0
0 0 0 0 0 0 0 0 0 0 0 0 0 0 0 0 0 0 0 0 0 0 -175 -182 -19 0 -225 -248 -189 0 0 0 0 -6 -15 -17 -13 -12 0 -2 0 0 0 0 0 0 0 0 0
0 0 0 0 0 0 0 0 0 0 0 0 0 0 0 0 0 0 0 0 0 0 0 0 0 -83 -233 -218 -232 0 0 0 0 0 0 -9 -9 -10 -10 -14 -7 0 -12 0 -6 0 0 0 0
0 0 0 0 0 0 0 0 0 0 0 0 0 0 0 0 0 0 0 0 0 0 0 0 0 0 0 -181 -181 -146 0 0 0 0 0 0 -10 -6 -9 -13 -20 -22 -20 -25 -23 -19 -14 0 0
0 0 0 0 0 0 0 0 0 0 0 0 0 0 0 0 0 0 0 0 0 0 0 0 0 0 0 0 0 0 0 0 0 0 -31 -5 -14 -12 -13 -12 -22 -21 -14 -19 -24 -24 -32 -35 -40
0 0 0 0 0 0 0 0 0 0 0 0 0 0 0 0 0 0 0 0 0 0 0 0 0 0 0 0 0 0 0 -7 -54 -29 -42 -35 -20 -16 -18 -20 -23 -19 -8 -9 -10 -12 -13 -20 -27
0 0 0 0 0 0 0 0 0 0 0 0 0 0 0 0 0 0 0 0 0 0 0 0 0 0 0 0 0 0 0 0 0 0 -28 -40 -46 -32 -23 -14 -22 -14 -7 -5 -7 -8 -7 -23 -25
0 0 0 0 0 0 0 0 0 0 0 0 0 0 0 0 0 0 0 0 0 0 0 0 0 0 0 0 0 0 0 0 0 0 0 0 0 -16 -63 -64 -64 -32 -10 -6 -19 -28 -29 -21 -17
0 0 0 0 0 0 0 0 0 0 0 0 0 0 0 0 0 0 0 0 0 0 0 0 0 0 0 0 0 0 0 0 0 0 0 0 0 0 0 0 0 -108 0 0 0 -56 -42 -30 -21
0 0 0 0 0 0 0 0 0 0 0 0 0 0 0 0 0 0 0 0 0 0 0 0 0 0 0 0 0 0 0 0 0 0 0 0 0 0 0 0 0 0 0 0 0 0 0 -31 -34
0 0 0 0 0 0 0 0 0 0 0 0 0 0 0 0 0 0 0 0 0 0 0 0 0 0 0 0 0 0 0 0 0 0 0 0 0 0 0 0 0 0 0 0 0 0 0 0 0
0 0 0 0 0 0 0 0 0 0 0 0 0 0 0 0 0 0 0 0 0 0 0 0 0 0 0 0 0 0 0 0 0 0 0 0 0 0 0 0 0 0 0 0 0 0 0 0 0
0 0 0 0 0 0 0 0 0 0 0 0 0 0 0 0 0 0 0 0 0 0 0 0 0 0 0 0 0 0 0 0 0 0 0 0 0 0 0 0 0 0 0 0 0 0 0 0 0
0 0 0 0 0 0 0 0 0 0 0 0 0 0 0 0 0 0 0 0 0 0 0 0 0 0 0 0 0 0 0 0 0 0 0 0 0 0 0 0 0 0 0 0 0 0 0 0 0
-2 0 0 0 0 0 0 0 0 0 0 0 0 0 0 0 0 0 0 0 0 0 0 0 0 0 0 0 0 0 0 0 0 0 0 0 0 0 0 0 0 0 0 0 0 0 0 0 0
0 0 0 0 0 0 0 0 0 0 0 0 0 0 0 0 0 0 0 0 0 0 0 0 0 0 0 0 0 0 0 0 0 0 0 0 0 0 0 0 0 0 0 0 0 0 0 0 0
0 -2 0 0 0 0 0 0 0 0 0 0 0 0 0 0 0 0 0 0 0 0 0 0 0 0 0 0 0 0 0 0 0 0 0 0 0 0 0 0 0 0 0 0 0 0 0 0 0
-5 0 0 0 0 0 0 0 0 0 0 0 0 0 0 0 0 0 0 0 0 0 0 0 0 0 0 0 0 0 0 0 0 0 0 0 0 0 0 0 0 0 0 0 0 0 0 0 0
0 -4 0 0 0 0 0 0 0 0 0 0 0 0 0 0 0 0 0 0 0 0 0 0 0 0 0 0 0 0 0 0 0 0 0 0 0 0 0 0 0 0 0 0 0 0 0 0 0
0 0 0 0 0 0 0 0 0 0 0 0 0 0 0 0 0 0 0 0 0 0 0 0 0 0 0 0 0 0 0 0 0 0 0 0 0 0 0 0 0 0 0 0 0 0 0 0 0
Wind_Speed
25 21 13 14 14 14 14 16 15 12 13 13 14 9 9 12 16 18 18 23 21 24 24 23 22 22 21 20 21 20 20 21 20 20 21 21 21 20 20 20 19 19 19 19 19 18 17 18 18
24 16 13 13 15 13 16 15 10 16 7 9 7 10 12 13 17 19 20 22 24 23 23 22 22 21 21 20 20 20 20 20 20 20 19 19 19 20 20 20 19 18 18 18 18 18 16 16 17
19 15 14 14 15 13 11 11 10 7 6 14 13 12 14 14 16 21 18 23 23 23 23 22 21 21 20 19 19 19 19 19 18 18 18 18 18 18 19 19 19 18 18 19 18 19 17 15 17
18 15 15 16 16 15 12 5 9 8 17 15 11 12 14 16 18 19 22 23 23 23 22 21 20 19 19 18 18 18 17 17 16 16 16 16 15 16 16 16 17 17 17 18 18 18 17 16 17
16 15 16 16 18 17 13 4 5 11 15 14 16 14 12 14 13 15 21 22 22 21 20 20 19 18 18 17 17 16 16 16 15 15 14 15 15 15 14 14 15 16 16 17 17 17 17 17 17
17 15 16 15 18 16 11 9 10 15 15 15 15 12 14 14 9 12 18 21 20 19 19 18 18 17 16 16 15 15 14 14 14 14 14 14 14 13 12 12 13 13 14 14 14 15 15 15 15
16 17 15 13 14 17 14 11 12 14 15 17 10 14 16 15 9 10 14 17 17 16 17 16 16 15 14 14 13 13 13 13 13 13 12 12 12 12 11 10 10 11 11 12 13 13 13 13 13
16 15 15 18 12 17 12 14 13 13 18 13 15 17 17 15 6 7 9 12 13 13 13 13 13 13 12 11 10 10 11 11 11 11 10 10 10 10 11 10 9 8 9 9 10 11 12 12 12
17 18 20 20 15 18 11 13 13 16 14 17 16 15 17 4 5 7 9 9 8 9 10 10 10 10 10 9 9 8 9 9 9 9 9 9 9 9 10 10 9 9 9 9 9 10 11 12 12
20 20 20 20 21 22 16 11 9 16 16 20 17 15 8 4 5 6 6 7 7 6 7 7 7 7 7 8 8 7 7 8 8 8 8 9 9 10 10 10 10 9 10 9 10 11 12 13 13
22 24 20 21 23 23 21 17 17 16 20 20 13 9 6 7 7 7 8 9 6 8 10 5 4 5 5 6 7 7 7 9 9 9 9 10 10 11 12 13 12 13 10 11 12 14 14 14 14
26 24 23 23 24 22 20 21 20 18 22 19 9 5 8 7 7 9 10 12 12 8 5 7 5 5 4 5 6 6 7 8 9 9 9 10 11 12 13 13 14 14 13 13 13 14 15 15 15
26 25 24 23 24 23 21 21 23 19 20 18 10 9 8 9 11 13 14 14 13 13 12 13 8 6 5 4 6 6 6 7 8 9 9 10 11 13 14 15 15 14 14 14 15 16 16 16 16
24 26 26 26 25 25 25 23 23 21 19 15 10 9 9 10 12 15 15 17 16 18 18 17 16 13 8 6 6 7 8 7 9 10 9 11 12 14 15 17 16 16 15 16 17 18 18 19 19
24 28 28 29 27 28 26 31 25 20 20 18 15 13 13 14 16 19 20 20 17 16 15 16 17 19 17 12 11 10 9 9 10 10 11 11 12 15 16 18 19 18 18 19 20 20 20 20 20
28 30 36 29 28 28 27 36 28 26 24 24 22 20 17 18 20 21 19 17 16 15 15 17 18 20 21 20 17 16 15 13 12 12 14 13 13 15 17 19 20 19 19 20 21 21 22 22 23
29 35 35 35 26 27 28 35 32 26 27 30 28 24 20 19 19 19 17 16 16 17 18 19 20 21 22 21 21 20 18 17 18 16 17 19 20 20 21 22 23 21 20 21 22 23 23 27 27
33 32 31 33 28 29 32 36 32 28 28 31 30 28 23 21 21 18 16 15 17 18 20 21 23 25 25 24 21 19 18 18 18 20 20 20 21 22 21 22 23 22 21 22 23 24 25 26 29
26 29 30 29 27 30 34 38 37 35 34 33 32 27 23 20 16 16 17 17 18 20 21 23 24 26 26 23 20 20 19 18 18 19 20 21 20 23 22 21 23 23 21 22 24 25 26 27 26
24 27 31 28 27 28 34 40 38 37 37 34 32 28 23 20 16 16 17 19 20 21 22 23 25 26 24 21 18 18 17 17 17 18 20 21 22 22 21 22 22 22 22 23 25 26 26 25 26
27 28 27 28 26 27 34 41 38 34 34 34 33 30 26 20 17 17 18 19 20 21 22 23 23 23 23 22 17 16 16 16 19 20 21 22 22 22 22 22 22 22 22 24 25 25 25 25 24
30 26 26 26 28 35 27 44 33 29 30 27 26 25 24 20 18 17 17 18 18 19 20 20 21 23 23 22 18 17 18 19 19 19 19 20 21 22 22 22 22 22 22 23 24 24 24 23 24
27 20 23 27 31 35 33 38 35 29 32 30 24 19 16 15 14 14 14 15 16 18 19 20 21 23 23 22 20 18 18 17 17 18 20 21 21 22 22 21 21 22 22 23 24 24 24 24 23
18 19 21 24 28 41 32 31 38 31 29 27 22 19 15 12 10 11 12 13 15 17 18 19 21 22 22 22 21 19 18 17 18 19 19 20 21 21 21 21 21 22 23 23 24 24 24 24 23
21 20 30 34 35 40 27 29 38 26 28 25 18 14 11 10 10 11 12 15 16 18 18 19 20 21 21 22 21 20 19 19 19 19 19 19 20 21 22 22 22 22 23 23 23 24 24 24 24
24 24 30 38 37 35 26 35 31 24 22 23 14 11 10 11 13 13 14 16 17 18 19 19 20 20 21 21 21 21 21 20 19 18 18 19 20 20 21 21 22 22 23 23 23 24 24 24 24
25 30 23 29 30 35 31 31 30 21 19 17 14 12 12 14 15 16 17 18 18 18 19 20 20 21 22 22 22 21 20 20 20 20 19 19 19 20 20 20 21 22 23 23 23 24 24 24 24
24 19 29 29 39 41 35 34 30 24 20 17 15 14 15 16 17 19 19 18 18 18 19 19 21 22 22 22 22 21 22 21 21 20 20 19 19 18 19 20 21 22 23 23 22 23 23 23 23
24 27 26 25 29 36 37 33 23 24 23 17 14 14 15 16 19 21 20 19 18 19 19 21 21 22 23 22 22 22 22 22 21 20 20 19 19 19 20 21 22 22 23 23 23 23 22 22 22
27 29 28 32 32 31 32 32 21 20 16 12 12 14 17 19 21 22 22 22 21 21 22 22 22 22 22 22 22 23 22 21 21 20 19 19 19 18 19 20 21 22 23 23 24 23 23 22 23
Wind_Direction
293 291 315 298 310 319 307 289 258 281 256 230 212 248 280 218 170 141 167 147 135 132 136 135 131 126 125 122 113 110 107 99 94 97 97 90 87 83 79 71 68 58 48 31 34 26 26 29 26
291 300 304 300 305 313 302 285 306 254 319 12 301 264 251 215 166 145 141 142 131 128 133 134 128 125 124 121 116 112 112 111 102 93 86 84 80 73 63 61 47 51 28 14 6 4 26 33 26
300 303 298 297 303 312 327 307 306 305 4 260 263 254 227 202 181 131 167 127 131 130 132 132 129 126 123 119 114 109 108 106 104 104 101 96 85 78 69 63 54 46 30 17 12 3 20 31 17
296 293 298 295 296 300 313 17 300 286 255 265 291 296 240 214 171 168 116 119 124 129 131 129 128 125 122 118 116 113 108 109 110 104 102 105 106 93 75 63 53 43 32 24 21 19 25 25 18
302 299 293 295 286 288 297 355 346 280 275 274 264 279 275 250 250 72 112 118 121 126 128 125 125 122 119 117 113 108 105 102 102 106 106 98 94 92 87 80 69 52 42 33 22 19 12 11 8
293 297 292 293 279 283 293 303 296 278 276 278 283 290 272 269 342 62 101 124 122 115 121 122 122 119 115 113 110 105 101 97 93 92 86 86 82 84 84 81 74 67 58 50 43 35 30 21 14
293 289 290 290 282 278 287 298 297 289 279 276 300 287 274 266 321 53 87 110 115 110 108 115 115 115 110 107 103 100 96 89 84 85 79 76 75 70 75 76 72 65 59 54 48 43 37 30 26
294 295 290 279 282 287 297 292 298 296 275 290 285 280 276 272 3 15 358 90 100 102 101 102 103 101 99 94 97 89 82 78 73 68 67 63 57 57 50 53 56 54 50 45 41 36 31 28 24
295 287 282 283 285 286 296 294 297 292 285 282 283 292 291 340 346 346 344 3 44 81 96 93 93 89 87 77 71 72 69 61 53 50 51 45 39 36 31 32 34 32 30 26 22 19 15 13 10
283 282 286 290 287 287 286 290 291 290 281 279 282 296 313 343 329 334 349 5 32 65 87 84 75 68 62 46 46 53 43 36 34 31 29 27 21 14 10 8 9 11 10 8 4 1 359 357 357
282 279 287 290 290 289 284 286 287 286 277 275 280 288 298 303 308 316 326 334 5 358 346 17 34 35 36 22 25 27 25 18 11 12 13 11 6 3 359 355 354 353 356 353 351 350 349 350 351
278 282 285 289 290 291 286 283 284 283 285 280 283 284 287 294 303 307 316 322 329 339 351 348 346 347 358 4 8 8 7 6 7 4 359 356 353 351 350 347 345 345 348 347 345 344 344 344 345
277 281 284 288 289 289 290 282 280 282 290 287 281 284 284 293 298 303 310 317 327 332 337 332 336 334 338 336 343 348 346 348 349 352 355 351 345 343 342 339 337 337 341 341 339 336 337 338 339
284 281 282 284 284 285 281 281 281 282 292 293 280 279 286 291 296 301 307 311 318 319 323 326 331 337 336 327 325 328 330 329 334 339 340 341 341 336 334 332 332 331 332 332 332 331 331 330 332
282 280 282 279 282 281 282 273 275 286 285 285 285 284 287 291 296 298 302 308 318 324 330 332 333 334 339 336 330 327 325 324 324 325 329 332 333 335 333 329 326 325 327 326 327 327 327 326 327
277 279 273 282 280 281 277 269 274 279 280 277 282 283 286 290 296 302 306 312 321 325 326 329 332 334 334 336 335 331 331 328 322 319 325 324 325 326 327 327 327 327 325 324 324 324 324 323 323
274 272 273 277 281 280 274 274 273 279 280 276 278 281 283 288 297 305 311 317 319 320 320 321 325 328 331 333 330 331 334 334 334 331 327 325 324 321 321 324 325 326 325 325 326 325 325 322 323
269 272 276 276 281 275 274 273 273 278 277 276 281 282 276 283 291 300 310 317 318 318 318 318 320 322 325 327 330 333 334 338 339 337 334 331 328 327 326 326 328 327 325 324 325 324 324 321 320
277 276 277 282 283 279 276 274 273 274 275 276 276 280 282 282 290 299 305 309 312 316 318 318 319 321 327 330 330 330 329 335 339 341 339 336 333 332 331 329 328 329 328 327 327 325 323 323 326
281 279 279 285 285 280 279 276 278 276 274 274 274 275 274 278 282 292 300 305 310 312 318 321 324 326 333 338 340 340 339 342 344 345 344 342 338 335 334 333 333 333 331 330 328 327 325 326 330
274 278 284 284 287 288 286 280 279 281 278 276 274 273 272 266 271 284 293 301 308 313 318 323 329 334 338 339 342 346 348 345 339 340 340 341 340 338 337 337 335 334 333 329 329 329 328 325 328
272 281 284 286 287 279 292 276 282 286 282 284 283 274 270 266 271 280 289 298 307 316 323 331 334 338 342 343 340 335 334 331 333 337 342 341 341 339 338 337 338 339 338 335 334 335 333 331 328
277 287 284 285 284 284 283 283 282 287 281 277 283 285 281 272 268 278 290 301 311 318 322 330 337 340 343 345 344 339 338 340 340 338 337 337 340 341 340 342 342 340 340 339 339 337 337 337 333
281 285 291 291 289 278 281 280 282 282 284 285 283 282 279 274 278 288 298 307 314 320 326 332 334 339 342 346 345 345 343 340 338 337 336 336 338 339 340 340 340 340 339 339 339 340 339 337 338
273 275 279 279 277 276 292 283 282 289 288 286 280 276 276 279 285 292 299 307 314 319 326 331 336 339 341 342 344 344 341 337 335 334 334 334 335 335 335 337 337 338 339 340 340 340 339 339 338
263 267 273 275 277 283 288 281 287 297 292 291 286 276 276 283 290 296 303 308 313 318 324 329 335 338 339 340 342 342 340 339 338 337 336 334 333 333 335 337 338 339 339 339 339 339 339 339 338
264 263 278 281 285 284 284 287 291 296 292 296 287 275 280 287 292 296 305 309 311 315 319 327 331 333 334 336 338 337 338 338 337 336 334 332 333 334 336 337 338 338 339 339 339 339 338 339 339
269 263 271 276 276 276 283 284 284 286 285 288 285 281 285 292 297 302 311 312 312 314 320 322 325 328 330 332 333 334 334 335 334 333 332 332 333 334 334 335 336 337 338 339 340 340 340 340 340
262 263 272 275 276 278 281 285 294 292 286 281 283 286 294 301 303 305 313 313 310 312 315 318 320 323 326 327 329 330 330 331 331 330 330 330 331 332 332 333 335 335 336 338 339 340 340 340 339
262 265 260 268 273 275 281 283 290 301 305 293 287 297 304 306 307 307 309 309 309 309 311 312 315 318 321 324 325 327 328 330 329 329 329 330 330 332 332 333 334 335 335 337 337 338 338 337 336